Location: Oregon Trail
(41.1872°N, 102.0741°W)
Time: 20:39:04
(UTC+00:00)

Cosmos 2228 Rocket - Pass Details

Date: 19 November 2019
Orbit: 619 x 652 km, 82.5° (Epoch: 15 December)

Event Time Altitude Azimuth Distance (km) Brightness Sun altitude
Rises 12:54:45 0° 346° (NNW) 2,980 6.2 -8.9°
Reaches altitude 10° 12:57:04 10° 341° (NNW) 2,066 5.4 -8.5°
Maximum altitude 13:01:29 50° 267° (W) 833 3.4 -7.7°
Drops below altitude 10° 13:05:53 10° 192° (SSW) 2,047 5.8 -6.9°
Sets 13:08:10 0° 187° (S) 2,950 6.7 -6.5°
